QPF
0.00 0.00 0.00 0.00 0.01 0.01 0.01 0.01 0.01 0.00 0.00 0.00 0.00 0.00 0.00 0.00 0.01 0.02 0.04 0.04 0.05 0.05
0.00 0.00 0.00 0.00 0.00 0.01 0.01 0.01 0.01 0.01 0.01 0.00 0.00 0.00 0.01 0.02 0.02 0.03 0.06 0.08 0.08 0.11
0.00 0.00 0.00 0.00 0.00 0.01 0.01 0.01 0.01 0.01 0.01 0.01 0.01 0.01 0.01 0.01 0.02 0.03 0.04 0.06 0.08 0.10
0.00 0.00 0.00 0.00 0.01 0.01 0.01 0.01 0.01 0.02 0.01 0.04 0.09 0.06 0.02 0.01 0.01 0.03 0.05 0.06 0.05 0.06
0.00 0.00 0.00 0.00 0.01 0.01 0.02 0.02 0.03 0.03 0.03 0.07 0.22 0.13 0.07 0.01 0.02 0.02 0.04 0.04 0.03 0.01
0.00 0.00 0.00 0.00 0.00 0.01 0.03 0.05 0.06 0.05 0.06 0.08 0.15 0.15 0.20 0.05 0.02 0.08 0.03 0.03 0.02 0.00
0.00 0.00 0.00 0.00 0.00 0.00 0.01 0.02 0.04 0.09 0.08 0.07 0.05 0.05 0.09 0.07 0.04 0.01 0.00 0.00 0.00 0.00
0.00 0.00 0.00 0.00 0.00 0.00 0.00 0.00 0.01 0.02 0.05 0.06 0.06 0.13 0.08 0.05 0.04 0.02 0.00 0.00 0.00 0.01
0.00 0.00 0.00 0.00 0.00 0.00 0.00 0.00 0.00 0.00 0.00 0.02 0.01 0.03 0.04 0.02 0.04 0.07 0.06 0.06 0.04 0.02
0.00 0.00 0.00 0.00 0.00 0.00 0.00 0.00 0.00 0.00 0.00 0.00 0.00 0.01 0.01 0.00 0.00 0.01 0.03 0.05 0.07 0.12
0.00 0.00 0.00 0.00 0.00 0.00 0.00 0.00 0.00 0.00 0.00 0.00 0.00 0.00 0.00 0.00 0.00 0.01 0.02 0.03 0.05 0.05
0.00 0.00 0.00 0.00 0.00 0.00 0.00 0.00 0.00 0.00 0.00 0.00 0.00 0.00 0.00 0.00 0.00 0.01 0.01 0.02 0.02 0.02
0.00 0.00 0.00 0.00 0.00 0.00 0.00 0.00 0.00 0.00 0.00 0.00 0.00 0.00 0.00 0.00 0.00 0.00 0.00 0.01 0.01 0.01
0.00 0.00 0.00 0.00 0.00 0.00 0.00 0.00 0.00 0.00 0.00 0.00 0.00 0.00 0.00 0.00 0.00 0.00 0.00 0.00 0.00 0.00
MSLP
1020.89 1020.62 1020.23 1019.75 1019.13 1018.25 1017.26 1016.39 1015.39 1014.35 1013.08 1011.68 1010.33 1008.90 1007.52 1005.97 1005.85 1005.29 1004.52 1003.79 1003.04 1002.23
1021.29 1021.18 1020.67 1020.14 1019.74 1018.89 1017.98 1016.86 1015.68 1014.58 1013.25 1011.59 1010.18 1008.69 1006.85 1005.36 1004.66 1004.32 1003.58 1003.10 1002.42 1001.64
1021.91 1021.56 1021.24 1020.87 1020.20 1019.39 1018.41 1017.30 1016.30 1015.13 1013.74 1012.15 1010.72 1009.20 1007.55 1006.04 1005.01 1004.78 1004.73 1004.18 1002.84 1001.93
1022.12 1021.99 1021.86 1021.58 1020.88 1020.06 1019.04 1017.88 1016.77 1015.74 1014.41 1013.04 1011.64 1010.59 1009.18 1007.81 1006.30 1006.07 1005.68 1005.24 1004.55 1003.75
1022.82 1022.64 1022.53 1022.16 1021.56 1020.79 1019.72 1018.74 1017.75 1016.52 1015.30 1014.12 1013.34 1012.14 1010.51 1009.66 1008.42 1007.97 1006.18 1006.19 1005.20 1004.44
1023.39 1023.27 1023.19 1022.74 1022.26 1021.54 1020.61 1019.50 1018.65 1017.57 1016.53 1015.69 1014.80 1013.51 1012.06 1011.12 1009.70 1008.99 1008.59 1007.78 1007.42 1006.33
1023.44 1023.44 1023.29 1022.98 1022.60 1022.09 1021.37 1020.36 1019.64 1018.96 1017.91 1016.93 1016.07 1015.03 1014.08 1012.77 1011.66 1011.22 1009.85 1008.35 1008.61 1008.80
1023.15 1023.15 1023.03 1022.80 1022.43 1022.28 1021.82 1021.15 1020.54 1019.78 1018.97 1017.97 1016.92 1016.22 1014.92 1013.74 1012.80 1011.70 1011.02 1010.96 1010.99 1010.47
1022.91 1022.81 1022.73 1022.50 1022.28 1022.06 1021.97 1021.56 1021.05 1020.39 1019.72 1019.19 1018.37 1017.78 1016.89 1016.02 1015.23 1014.49 1013.57 1013.13 1012.76 1012.47
1023.41 1023.25 1023.08 1022.76 1022.47 1022.19 1022.13 1022.00 1021.67 1021.18 1020.63 1019.97 1019.79 1018.88 1018.01 1017.39 1016.59 1016.36 1016.06 1015.47 1015.00 1014.03
1024.08 1023.87 1023.80 1023.51 1023.05 1022.87 1022.66 1022.61 1022.40 1022.39 1021.88 1021.38 1020.97 1020.18 1018.95 1018.27 1017.91 1017.98 1017.95 1017.68 1017.06 1016.40
1024.94 1024.57 1024.50 1024.30 1023.93 1023.52 1023.47 1023.22 1023.15 1023.01 1022.95 1022.34 1022.10 1021.64 1020.86 1019.62 1019.27 1019.22 1019.39 1019.15 1018.80 1018.30
1025.53 1025.60 1025.47 1025.06 1024.74 1024.41 1024.05 1023.91 1023.74 1023.75 1023.62 1023.50 1022.99 1022.80 1022.16 1021.50 1021.02 1020.61 1020.10 1020.22 1020.11 1019.71
1025.61 1025.62 1025.62 1025.57 1025.19 1025.12 1024.78 1024.58 1024.21 1024.07 1024.10 1024.05 1024.03 1023.74 1023.49 1023.12 1022.40 1021.62 1021.35 1021.35 1021.26 1020.94
Thickness
5440 5437 5436 5433 5431 5432 5435 5437 5442 5446 5453 5463 5472 5481 5492 5505 5509 5518 5532 5546 5559 5570
5430 5426 5425 5423 5420 5419 5421 5426 5430 5435 5442 5450 5457 5467 5479 5493 5503 5511 5524 5537 5551 5565
5418 5416 5413 5410 5409 5410 5412 5415 5418 5419 5427 5433 5438 5445 5455 5468 5480 5487 5497 5511 5532 5548
5411 5408 5402 5398 5396 5397 5400 5403 5405 5406 5412 5415 5418 5415 5421 5432 5449 5459 5474 5487 5501 5515
5400 5397 5392 5389 5386 5384 5386 5391 5391 5394 5398 5399 5394 5398 5403 5405 5419 5434 5459 5468 5485 5498
5389 5386 5382 5380 5378 5377 5376 5380 5382 5383 5385 5384 5380 5383 5390 5394 5408 5421 5433 5449 5460 5475
5383 5378 5375 5374 5371 5370 5370 5370 5371 5370 5372 5374 5373 5374 5375 5384 5395 5403 5421 5440 5446 5451
5378 5374 5372 5370 5369 5365 5364 5365 5362 5362 5362 5365 5369 5370 5376 5381 5389 5402 5412 5418 5423 5432
5373 5371 5369 5368 5366 5365 5361 5359 5359 5357 5357 5356 5360 5360 5365 5370 5374 5381 5391 5398 5405 5411
5361 5360 5359 5359 5360 5359 5357 5354 5352 5352 5351 5352 5348 5353 5357 5361 5368 5369 5373 5379 5385 5396
5347 5347 5345 5346 5348 5348 5348 5346 5344 5341 5341 5340 5339 5342 5350 5353 5356 5355 5355 5358 5365 5372
5333 5334 5332 5332 5334 5337 5336 5337 5336 5334 5332 5333 5330 5331 5334 5342 5344 5343 5341 5343 5347 5350
5321 5318 5318 5320 5321 5323 5325 5325 5326 5324 5324 5323 5324 5323 5325 5329 5332 5333 5335 5331 5331 5336
5315 5313 5311 5310 5312 5311 5314 5315 5317 5317 5315 5314 5312 5312 5312 5314 5319 5325 5326 5324 5322 5323